San Antonio, TX

2:26 AM CDT on July 22, 2017 (GMT -0500)
San Antonio International

Weather History for KSAT - April, 2013

Change the Weather History Date:

Saturday, April 27, 2013

  Actual Average Record
Temperature  
Mean Temperature 75 °F 72 °F  
Max Temperature 83 °F 83 °F 99 °F (2014)
Min Temperature 66 °F 61 °F 46 °F (1908)
Degree Days  
Heating Degree Days 0 0  
Month to date heating degree days 57 38  
Since 1 July heating degree days 1191 1493  
Cooling Degree Days 10 8  
Month to date cooling degree days 117 145  
Year to date cooling degree days 234 236  
Growing Degree Days 24 (Base 50)    
Moisture  
Dew Point 67 °F    
Average Humidity 76    
Maximum Humidity 93    
Minimum Humidity 58    
Precipitation  
Precipitation 0.39 in 0.08 in 2.10 in (1941)
Month to date precipitation 2.21 1.83  
Year to date precipitation 6.09 7.69  
Snow  
Snow 0.00 in - - ()
Month to date snowfall T  
Since 1 July snowfall T  
Snow Depth 0.00 in    
Sea Level Pressure  
Sea Level Pressure 30.00 in    
Wind  
Wind Speed 6 mph (SE)    
Max Wind Speed 25 mph    
Max Gust Speed 29 mph    
Visibility 9 miles    
Events Rain , Thunderstorm    
T = Trace of Precipitation, MM = Missing Value Source: NWS Daily Summary

Daily Weather History Graph

Daily Weather History Graph

Search for Another Location

Airport or City:

Trip Planner

Search our weather history database for the weather conditions in past years. The results will help you decide how hot, cold, wet, or windy it might be!

Date:

Astronomy

Apr. 27, 2013 Rise Set
Actual Time 6:55 AM CDT 8:08 PM CDT
Civil Twilight 6:30 AM CDT 8:33 PM CDT
Nautical Twilight 6:00 AM CDT 9:03 PM CDT
Astronomical Twilight 5:29 AM CDT 9:33 PM CDT
Moon 10:31 PM CDT (4/27) 8:22 AM CDT (4/27)
Length of Visible Light 14h 03m
Length of Day
13h 13m
Waning Gibbous, 95% of the Moon is Illuminated
Apr 27
Waning Gibbous
May 2
Last Quarter
May 9
New
May 17
First Quarter
May 24
Full

Hourly Weather History & Observations

Time (CDT) Temp. Heat Index Dew Point Humidity Pressure Visibility Wind Dir Wind Speed Gust Speed Precip Events Conditions
12:51 AM 72.0 °F - 68.0 °F 87% 30.05 in 10.0 mi SSE 12.7 mph - N/A   Overcast
1:51 AM 72.0 °F - 68.0 °F 87% 30.03 in 10.0 mi SSE 11.5 mph - N/A   Overcast
2:51 AM 71.1 °F - 68.0 °F 90% 29.99 in 9.0 mi SSE 9.2 mph - N/A   Mostly Cloudy
3:51 AM 71.1 °F - 68.0 °F 90% 29.99 in 10.0 mi SSE 9.2 mph - N/A   Overcast
4:51 AM 71.1 °F - 66.9 °F 87% 29.98 in 10.0 mi SSE 11.5 mph - N/A   Overcast
5:47 AM 69.8 °F - 66.2 °F 88% 30.03 in 10.0 mi SSE 6.9 mph - N/A   Overcast
5:51 AM 70.0 °F - 66.9 °F 90% 29.99 in 10.0 mi South 6.9 mph - N/A   Overcast
6:51 AM 70.0 °F - 66.9 °F 90% 30.00 in 10.0 mi South 5.8 mph - N/A   Overcast
7:38 AM 69.8 °F - 66.2 °F 88% 30.06 in 8.0 mi Calm Calm - N/A   Overcast
7:51 AM 71.1 °F - 66.9 °F 87% 30.02 in 8.0 mi Calm Calm - N/A   Overcast
8:47 AM 71.6 °F - 66.2 °F 83% 30.09 in 8.0 mi Calm Calm - N/A   Overcast
8:51 AM 71.1 °F - 66.9 °F 87% 30.04 in 8.0 mi Calm Calm - N/A   Overcast
9:18 AM 71.6 °F - 68.0 °F 88% 30.09 in 10.0 mi Calm Calm - N/A   Overcast
9:51 AM 72.0 °F - 68.0 °F 87% 30.04 in 10.0 mi Calm Calm - N/A   Overcast
10:51 AM 73.0 °F - 68.0 °F 84% 30.05 in 9.0 mi SE 4.6 mph - N/A   Overcast
11:51 AM 73.0 °F - 68.0 °F 84% 30.05 in 9.0 mi SE 3.5 mph - N/A   Overcast
12:28 PM 75.2 °F - 66.2 °F 73% 30.09 in 9.0 mi Calm Calm - N/A   Overcast
12:51 PM 75.9 °F - 66.0 °F 71% 30.03 in 9.0 mi Calm Calm - N/A   Overcast
1:26 PM 75.2 °F - 68.0 °F 78% 30.06 in 9.0 mi NE 5.8 mph - N/A   Overcast
1:51 PM 77.0 °F - 68.0 °F 74% 30.01 in 9.0 mi Calm Calm - N/A   Overcast
2:47 PM 78.8 °F - 66.2 °F 65% 30.03 in 8.0 mi ENE 4.6 mph - N/A   Overcast
2:51 PM 78.1 °F - 66.9 °F 68% 29.98 in 9.0 mi East 3.5 mph - N/A   Mostly Cloudy
3:51 PM 80.1 °F 82.3 °F 66.9 °F 64% 29.96 in 10.0 mi Variable 3.5 mph - N/A   Overcast
4:51 PM 82.0 °F 84.5 °F 66.9 °F 60% 29.93 in 10.0 mi Variable 4.6 mph - N/A   Mostly Cloudy
5:51 PM 81.0 °F 83.0 °F 66.0 °F 60% 29.90 in 10.0 mi East 5.8 mph - N/A   Mostly Cloudy
6:51 PM 79.0 °F - 66.9 °F 66% 29.91 in 10.0 mi SE 5.8 mph - N/A   Overcast
7:51 PM 77.0 °F - 66.9 °F 71% 29.91 in 10.0 mi ESE 6.9 mph - N/A   Overcast
8:51 PM 75.0 °F - 69.1 °F 82% 29.91 in 10.0 mi ESE 10.4 mph - N/A   Overcast
9:41 PM 73.4 °F - 66.2 °F 78% 29.99 in 10.0 mi ENE 6.9 mph - N/A   Overcast
9:51 PM 73.0 °F - 66.0 °F 79% 29.94 in 10.0 mi East 15.0 mph 21.9 mph N/A Thunderstorm Thunderstorm
10:27 PM 69.8 °F - 66.2 °F 88% 30.01 in 10.0 mi SE 18.4 mph 25.3 mph 0.00 in Rain , Thunderstorm Light Thunderstorms and Rain
10:34 PM 69.8 °F - 66.2 °F 88% 30.02 in 8.0 mi South 9.2 mph 25.3 mph 0.00 in Rain , Thunderstorm Light Thunderstorms and Rain
10:51 PM 68.0 °F - 66.9 °F 96% 29.98 in 6.0 mi ESE 13.8 mph - 0.17 in Rain , Thunderstorm Heavy Thunderstorms and Rain
11:11 PM 66.2 °F - 66.2 °F 100% 29.98 in 5.0 mi ESE 19.6 mph 28.8 mph 0.20 in Rain , Thunderstorm Thunderstorms and Rain
11:25 PM 66.2 °F - 66.2 °F 100% 29.99 in 8.0 mi SSE 9.2 mph - 0.21 in Rain , Thunderstorm Light Thunderstorms and Rain
11:40 PM 66.2 °F - 66.2 °F 100% 30.05 in 6.0 mi Variable 4.6 mph - 0.22 in Thunderstorm Overcast
11:51 PM 68.0 °F - 66.0 °F 93% 30.02 in 6.0 mi Variable 3.5 mph - 0.22 in Rain , Thunderstorm Light Thunderstorms and Rain